Simultaneous Nadir Overpasses (SNOs) Predictions

Prediction of SNOs between GOES-15 and NPP Satellite Orbit:

Table of predicted SNOs for the next 14.0 days since TLE Epoch: 11/22/2013
Index Date Time (GOES-15) GOES-15 Lat,Lon NPP Lat,Lon Distance(km) Time Diff (sec)
1 11/22/2013 22:35:21 0.01,-135.41 -0.44,-137.46 233.74 80
2 11/23/2013 22:19:17 -0.01,-135.42 0.52,-132.92 283.39 80
3 11/25/2013 10:38:29 -0.02,-135.49 0.58,-138.22 310.65 80
4 11/26/2013 10:22:26 -0.01,-135.50 -0.39,-133.68 206.32 80
5 11/27/2013 22:41:45 0.04,-135.44 -0.78,-138.99 405.34 80
6 11/28/2013 22:25:43 0.02,-135.44 0.25,-134.47 111.11 80
7 11/30/2013 10:44:54 -0.05,-135.50 0.89,-139.75 484.31 80
8 12/01/2013 10:28:51 -0.03,-135.50 -0.09,-135.22 31.76 80
9 12/03/2013 22:29:26
